Location: The Saddle
(36.8333°N, 80.3417°W)
Time: 00:35:40
(UTC-04:00)

FO-99 - Visible Passes

Search period start: 29 March 2023 00:00
Search period end: 08 April 2023 00:00
Orbit: 423 x 443 km, 97.1° (Epoch: 28 March)

Date Brightness Start Highest point End Pass type
(mag) Time Alt. Az. Time Alt. Az. Time Alt. Az.
29 Mar ? 20:31:58 10° S 20:35:15 55° W 20:38:33 10° NNW visible
31 Mar ? 20:44:09 10° SSW 20:47:14 35° W 20:50:21 10° NNW visible
01 Apr ? 20:03:40 10° SSE 20:06:54 51° ENE 20:10:10 10° N visible
02 Apr ? 20:56:08 10° SSW 20:58:53 24° W 21:01:39 10° NW visible
03 Apr ? 20:15:00 10° SSE 20:18:18 79° ENE 20:21:38 10° N visible
04 Apr ? 21:07:56 10° SW 21:10:10 17° W 21:12:25 10° NW visible
05 Apr ? 20:26:04 10° S 20:29:22 68° W 20:32:40 10° NNW visible
06 Apr ? 21:19:47 10° WSW 21:21:06 12° W 21:22:26 10° WNW visible
07 Apr ? 20:36:53 10° S 20:40:03 44° W 20:43:15 10° NNW visible
